Overview Statistics Trail Chart Weather Telemetry Raw packets
 

This is the latest recevied weather packets stored in our database for station/object KE8WMS. If no packets are shown the sender has not sent any weather packets the latest 10 day(s).

<< 71 72 73 74 75 76 77 >>
Time Temp. Humidity Pressure Rain* Wind** Luminosity Snow
1777339865 20.56° C 44% 1006.4 hPa 0 mm - 0 W/m² -
1777339563 20.56° C 46% 1006.2 hPa 0 mm - 0 W/m² -
1777339260 20.56° C 48% 1005.9 hPa 0 mm - 0 W/m² -
1777338958 20.56° C 46% 1006.5 hPa 0 mm - 0 W/m² -
1777338655 20° C 45% 1007.3 hPa 0 mm - 0 W/m² -
1777338353 20.56° C 46% 1008 hPa 0 mm - 0 W/m² -
1777338049 20.56° C 47% 1008.2 hPa 0 mm - 0 W/m² -
1777337745 20° C 46% 1008.4 hPa 0 mm - 0 W/m² -
1777337443 20.56° C 47% 1008.4 hPa 0 mm - 0 W/m² -
1777337139 20.56° C 49% 1008.5 hPa 0 mm - 0 W/m² -
1777336837 20.56° C 47% 1008.7 hPa 0 mm - 0 W/m² -
1777336536 20° C 50% 1009.2 hPa 0 mm - 0 W/m² -
1777336233 20.56° C 48% 1009.2 hPa 0 mm - 0 W/m² -
1777335931 20.56° C 48% 1009.4 hPa 0 mm - 0 W/m² -
1777335627 20.56° C 51% 1009.7 hPa 0 mm - 1 W/m² -
1777335325 20.56° C 50% 1009.9 hPa 0 mm - 1 W/m² -
1777335022 20.56° C 47% 1010 hPa 0 mm - 2 W/m² -
1777334719 20.56° C 48% 1010.4 hPa 0 mm - 3 W/m² -
1777334417 20.56° C 48% 1010.6 hPa 0 mm - 4 W/m² -
1777334113 21.11° C 45% 1010.5 hPa 0 mm - 6 W/m² -
1777333813 20.56° C 45% 1010.6 hPa 0 mm - 7 W/m² -
1777333510 20.56° C 48% 1011 hPa 0 mm - 8 W/m² -
1777333206 20.56° C 48% 1011.1 hPa 0 mm - 10 W/m² -
1777332905 21.11° C 44% 1010.8 hPa 0 mm - 13 W/m² -
1777332602 21.11° C 43% 1010.9 hPa 0 mm - 17 W/m² -

* Rain latest hour (hover to see other rain measurements)
** Current wind speed in m/s (hover to see current wind gust speed)